| time (UTC) | temp F | wind direction | speed MPH | gust MPH | rain 1hr in | rain 24hr in | rain mn in | humidity % | barometer mb |
| 20260902015539 | 80 | 101 | 2.0 | 4.0 | 0.00 | 1.13 | 1.13 | 91 | 1016.5 |
| 20260902015037 | 80 | 119 | 2.0 | 4.0 | 0.00 | 1.13 | 1.13 | 90 | 1016.4 |
| 20260902014536 | 80 | 108 | 2.0 | 4.0 | 0.00 | 1.13 | 1.13 | 90 | 1016.4 |
| 20260902014036 | 80 | 121 | 2.0 | 4.0 | 0.00 | 1.13 | 1.13 | 90 | 1016.3 |
| 20260902013537 | 80 | 120 | 3.0 | 4.0 | 0.00 | 1.13 | 1.13 | 90 | 1016.1 |
| 20260902013032 | 80 | 82 | 2.0 | 4.0 | 0.00 | 1.13 | 1.13 | 90 | 1016.0 |
| 20260902012805 | 80 | 113 | 2.0 | 4.0 | 0.00 | 1.13 | 1.13 | 89 | 1016.0 |
| 20260902012032 | 80 | 120 | 2.0 | 3.0 | 0.00 | 1.13 | 1.13 | 89 | 1016.1 |
| 20260902011534 | 80 | 116 | 2.0 | 3.0 | 0.00 | 1.13 | 1.13 | 89 | 1016.2 |
| 20260902011030 | 80 | 131 | 1.0 | 3.0 | 0.00 | 1.13 | 1.13 | 89 | 1016.0 |
| 20260902010803 | 81 | 122 | 2.0 | 3.0 | 0.00 | 1.13 | 1.13 | 89 | 1016.1 |
| 20260902010026 | 81 | 116 | 1.0 | 3.0 | 0.00 | 1.13 | 1.13 | 88 | 1016.1 |
| 20260902005525 | 81 | 130 | 2.0 | 3.0 | 0.00 | 1.13 | 1.13 | 88 | 1016.1 |
| 20260902005027 | 81 | 123 | 2.0 | 7.0 | 0.00 | 1.13 | 1.13 | 88 | 1016.1 |
| 20260902004758 | 81 | 118 | 2.0 | 7.0 | 0.00 | 1.13 | 1.13 | 88 | 1016.1 |
| 20260902004026 | 81 | 88 | 3.0 | 9.0 | 0.00 | 1.13 | 1.13 | 88 | 1016.1 |
| 20260902003524 | 81 | 104 | 3.0 | 9.0 | 0.00 | 1.13 | 1.13 | 88 | 1016.1 |
| 20260902003020 | 81 | 127 | 3.0 | 9.0 | 0.00 | 1.13 | 1.13 | 88 | 1016.1 |
| 20260902002520 | 81 | 115 | 4.0 | 9.0 | 0.00 | 1.13 | 1.13 | 87 | 1016.1 |
| 20260902002019 | 81 | 105 | 4.0 | 9.0 | 0.00 | 1.13 | 1.13 | 87 | 1016.1 |
| 20260902001516 | 82 | 127 | 4.0 | 8.0 | 0.00 | 1.13 | 1.13 | 87 | 1015.9 |
| 20260902001015 | 82 | 141 | 3.0 | 7.0 | 0.00 | 1.13 | 1.13 | 87 | 1016.0 |
| 20260902000747 | 82 | 112 | 3.0 | 7.0 | 0.00 | 1.13 | 1.13 | 87 | 1016.1 |
| 20260902000013 | 82 | 111 | 3.0 | 7.0 | 0.00 | 1.13 | 1.13 | 87 | 1016.2 |
| 20260901235512 | 82 | 111 | 3.0 | 7.0 | 0.00 | 1.13 | 1.13 | 87 | 1016.2 |
| 20260901235011 | 82 | 113 | 3.0 | 7.0 | 0.00 | 1.13 | 1.13 | 86 | 1016.3 |
| 20260901234512 | 82 | 117 | 3.0 | 7.0 | 0.00 | 1.13 | 1.13 | 86 | 1016.3 |
| 20260901234237 | 82 | 124 | 4.0 | 8.0 | 0.00 | 1.13 | 1.13 | 86 | 1016.3 |
| 20260901233508 | 82 | 114 | 4.0 | 9.0 | 0.00 | 1.13 | 1.13 | 86 | 1016.2 |
| 20260901233007 | 82 | 104 | 4.0 | 9.0 | 0.00 | 1.13 | 1.13 | 86 | 1016.2 |
| 20260901232506 | 82 | 142 | 4.0 | 8.0 | 0.00 | 1.13 | 1.13 | 86 | 1016.2 |
| 20260901232007 | 82 | 122 | 4.0 | 8.0 | 0.00 | 1.13 | 1.13 | 85 | 1016.2 |
| 20260901231508 | 82 | 126 | 3.0 | 8.0 | 0.00 | 1.13 | 1.13 | 86 | 1016.1 |
| 20260901231003 | 82 | 124 | 4.0 | 8.0 | 0.00 | 1.13 | 1.13 | 86 | 1016.0 |
| 20260901230504 | 82 | 145 | 5.0 | 10.0 | 0.00 | 1.13 | 1.13 | 86 | 1015.9 |
| 20260901230010 | 82 | 115 | 5.0 | 10.0 | 0.00 | 1.13 | 1.13 | 86 | 1015.9 |
| 20260901225503 | 82 | 123 | 5.0 | 10.0 | 0.00 | 1.13 | 1.13 | 86 | 1015.9 |
| 20260901225004 | 82 | 103 | 5.0 | 10.0 | 0.00 | 1.13 | 1.13 | 86 | 1015.8 |
| 20260901224505 | 82 | 105 | 4.0 | 10.0 | 0.00 | 1.13 | 1.13 | 85 | 1015.8 |
| 20260901224002 | 82 | 132 | 4.0 | 10.0 | 0.00 | 1.13 | 1.13 | 85 | 1015.8 |
| 20260901223502 | 82 | 120 | 5.0 | 10.0 | 0.00 | 1.13 | 1.13 | 85 | 1015.7 |
| 20260901223002 | 82 | 124 | 7.0 | 12.0 | 0.00 | 1.13 | 1.13 | 85 | 1015.6 |
| 20260901222735 | 82 | 92 | 6.0 | 12.0 | 0.01 | 1.13 | 1.13 | 85 | 1015.6 |
| 20260901222004 | 82 | 117 | 6.0 | 12.0 | 0.01 | 1.13 | 1.13 | 85 | 1015.7 |
| 20260901221727 | 82 | 104 | 6.0 | 12.0 | 0.01 | 1.13 | 1.13 | 86 | 1015.7 |
| 20260901220955 | 82 | 86 | 6.0 | 9.0 | 0.01 | 1.13 | 1.13 | 88 | 1015.5 |
| 20260901220451 | 82 | 138 | 5.0 | 9.0 | 0.01 | 1.13 | 1.13 | 87 | 1015.6 |
| 20260901215949 | 82 | 127 | 3.0 | 7.0 | 0.01 | 1.13 | 1.13 | 88 | 1015.7 |
| 20260901215722 | 82 | 86 | 3.0 | 7.0 | 0.01 | 1.13 | 1.13 | 89 | 1015.6 |
| 20260901214947 | 82 | 127 | 4.0 | 7.0 | 0.01 | 1.13 | 1.13 | 89 | 1015.6 |
| 20260901214447 | 83 | 109 | 3.0 | 7.0 | 0.01 | 1.13 | 1.13 | 88 | 1015.5 |
| 20260901213944 | 83 | 113 | 3.0 | 6.0 | 0.01 | 1.13 | 1.13 | 88 | 1015.6 |
| 20260901213716 | 83 | 122 | 3.0 | 8.0 | 0.01 | 1.13 | 1.13 | 86 | 1015.8 |
| 20260901212944 | 83 | 126 | 5.0 | 9.0 | 0.01 | 1.13 | 1.13 | 86 | 1015.9 |
| 20260901212443 | 84 | 101 | 6.0 | 10.0 | 0.00 | 1.12 | 1.12 | 85 | 1015.9 |
| 20260901211937 | 84 | 96 | 6.0 | 10.0 | 0.00 | 1.12 | 1.12 | 83 | 1015.9 |
| 20260901211440 | 84 | 121 | 5.0 | 9.0 | 0.00 | 1.12 | 1.12 | 84 | 1016.2 |
| 20260901211435 | 84 | 116 | 5.0 | 9.0 | 0.00 | 1.12 | 1.12 | 83 | 1016.0 |
| 20260901211054 | 84 | 107 | 6.0 | 9.0 | 0.00 | 1.12 | 1.12 | 83 | 1016.5 |
| 20260901210207 | 84 | 114 | 5.0 | 9.0 | 0.00 | 1.12 | 1.12 | 84 | 1016.4 |
| 20260901205434 | 84 | 94 | 5.0 | 9.0 | 0.00 | 1.12 | 1.12 | 84 | 1016.6 |
| 20260901204930 | 84 | 111 | 4.0 | 9.0 | 0.00 | 1.12 | 1.12 | 83 | 1016.7 |
| 20260901204429 | 84 | 111 | 4.0 | 9.0 | 0.00 | 1.12 | 1.12 | 83 | 1016.7 |
| 20260901203928 | 84 | 109 | 5.0 | 9.0 | 0.00 | 1.12 | 1.12 | 83 | 1016.7 |
| 20260901203703 | 84 | 127 | 4.0 | 9.0 | 0.00 | 1.12 | 1.12 | 83 | 1016.8 |
| 20260901202928 | 84 | 111 | 4.0 | 9.0 | 0.00 | 1.12 | 1.12 | 84 | 1016.7 |
| 20260901202428 | 84 | 92 | 3.0 | 9.0 | 0.00 | 1.12 | 1.12 | 84 | 1016.7 |
| 20260901201921 | 84 | 101 | 4.0 | 9.0 | 0.00 | 1.12 | 1.12 | 85 | 1016.7 |
| 20260901201422 | 83 | 103 | 5.0 | 9.0 | 0.00 | 1.12 | 1.12 | 85 | 1016.8 |
| 20260901200921 | 83 | 134 | 4.0 | 9.0 | 0.00 | 1.12 | 1.12 | 86 | 1016.7 |
| 20260901200422 | 83 | 114 | 5.0 | 9.0 | 0.00 | 1.12 | 1.12 | 86 | 1016.8 |
| 20260901200154 | 83 | 105 | 6.0 | 11.0 | 0.00 | 1.12 | 1.12 | 85 | 1016.9 |
| 20260901195421 | 82 | 138 | 6.0 | 11.0 | 0.00 | 1.12 | 1.12 | 85 | 1017.1 |
| 20260901194918 | 82 | 127 | 5.0 | 12.0 | 0.00 | 1.12 | 1.12 | 86 | 1017.1 |
| 20260901194416 | 82 | 165 | 5.0 | 12.0 | 0.00 | 1.12 | 1.12 | 87 | 1017.3 |
| 20260901193917 | 81 | 128 | 5.0 | 10.0 | 0.00 | 1.12 | 1.12 | 88 | 1017.4 |
| 20260901193418 | 81 | 105 | 5.0 | 11.0 | 0.00 | 1.12 | 1.12 | 87 | 1017.4 |
| 20260901193147 | 81 | 102 | 5.0 | 11.0 | 0.00 | 1.12 | 1.12 | 89 | 1017.2 |
| 20260901192415 | 80 | 126 | 4.0 | 10.0 | 0.00 | 1.12 | 1.12 | 89 | 1017.3 |
| 20260901191914 | 80 | 132 | 4.0 | 8.0 | 0.00 | 1.12 | 1.12 | 90 | 1017.2 |
| 20260901191412 | 80 | 80 | 4.0 | 8.0 | 0.00 | 1.12 | 1.12 | 90 | 1017.3 |
| 20260901190910 | 79 | 117 | 3.0 | 7.0 | 0.00 | 1.12 | 1.12 | 92 | 1017.2 |
| 20260901190410 | 79 | 102 | 4.0 | 7.0 | 0.00 | 1.12 | 1.12 | 92 | 1017.2 |
| 20260901190140 | 79 | 110 | 4.0 | 8.0 | 0.00 | 1.12 | 1.12 | 92 | 1017.2 |
| 20260901185411 | 78 | 58 | 4.0 | 8.0 | 0.00 | 1.12 | 1.12 | 93 | 1017.2 |
| 20260901184904 | 78 | 94 | 4.0 | 8.0 | 0.00 | 1.12 | 1.12 | 93 | 1017.1 |
| 20260901184406 | 77 | 116 | 3.0 | 8.0 | 0.00 | 1.12 | 1.12 | 93 | 1017.3 |
| 20260901183906 | 77 | 80 | 4.0 | 9.0 | 0.00 | 1.12 | 1.12 | 93 | 1017.2 |
| 20260901183406 | 77 | 96 | 5.0 | 9.0 | 0.00 | 1.12 | 1.12 | 93 | 1017.3 |
| 20260901182904 | 77 | 92 | 4.0 | 10.0 | 0.00 | 1.12 | 1.12 | 93 | 1017.4 |
| 20260901182403 | 76 | 110 | 4.0 | 10.0 | 0.01 | 1.16 | 1.12 | 93 | 1017.5 |
| 20260901181858 | 76 | 100 | 4.0 | 10.0 | 0.01 | 1.29 | 1.12 | 93 | 1017.4 |
| 20260901181358 | 76 | 65 | 6.0 | 10.0 | 0.02 | 1.31 | 1.12 | 93 | 1017.5 |
| 20260901181132 | 76 | 39 | 6.0 | 10.0 | 0.03 | 1.31 | 1.12 | 92 | 1017.5 |
| 20260901180632 | 77 | 103 | 4.0 | 9.0 | 0.03 | 1.31 | 1.12 | 93 | 1017.6 |
| 20260901180128 | 77 | 81 | 4.0 | 8.0 | 0.03 | 1.31 | 1.12 | 92 | 1017.5 |
| 20260901175357 | 77 | 120 | 4.0 | 8.0 | 0.03 | 1.31 | 1.12 | 92 | 1017.5 |
| 20260901174855 | 77 | 111 | 3.0 | 8.0 | 0.03 | 1.31 | 1.12 | 92 | 1017.5 |
| 20260901174625 | 77 | 144 | 3.0 | 9.0 | 0.03 | 1.31 | 1.12 | 92 | 1017.5 |
| 20260901173855 | 77 | 86 | 4.0 | 9.0 | 0.03 | 1.31 | 1.12 | 91 | 1017.5 |
| 20260901173354 | 77 | 113 | 5.0 | 13.0 | 0.03 | 1.31 | 1.12 | 91 | 1017.7 |
| 20260901172852 | 77 | 94 | 7.0 | 13.0 | 0.03 | 1.31 | 1.12 | 90 | 1017.7 |
| 20260901172353 | 78 | 103 | 7.0 | 13.0 | 0.02 | 1.30 | 1.11 | 90 | 1017.7 |
| 20260901171849 | 78 | 55 | 6.0 | 13.0 | 0.02 | 1.30 | 1.11 | 91 | 1018.0 |
| 20260901171619 | 79 | 110 | 6.0 | 11.0 | 0.01 | 1.29 | 1.10 | 91 | 1018.2 |
| 20260901170850 | 79 | 88 | 6.0 | 11.0 | 0.00 | 1.28 | 1.09 | 91 | 1018.0 |
| 20260901170346 | 79 | 88 | 4.0 | 12.0 | 0.00 | 1.28 | 1.09 | 91 | 1017.8 |
| 20260901170118 | 79 | 73 | 5.0 | 12.0 | 0.00 | 1.28 | 1.09 | 91 | 1017.6 |
| 20260901165344 | 79 | 103 | 6.0 | 12.0 | 0.06 | 1.28 | 1.09 | 91 | 1017.6 |
| 20260901164844 | 79 | 86 | 6.0 | 12.0 | 0.24 | 1.28 | 1.09 | 92 | 1017.5 |
| 20260901164337 | 79 | 127 | 6.0 | 13.0 | 0.45 | 1.28 | 1.09 | 92 | 1017.4 |
| 20260901164107 | 79 | 125 | 7.0 | 13.0 | 0.67 | 1.28 | 1.09 | 92 | 1017.6 |
| 20260901163335 | 79 | 111 | 7.0 | 13.0 | 0.69 | 1.28 | 1.09 | 93 | 1017.6 |
| 20260901162835 | 79 | 130 | 7.0 | 13.0 | 0.69 | 1.28 | 1.09 | 93 | 1017.6 |
| 20260901162335 | 79 | 113 | 6.0 | 13.0 | 0.70 | 1.28 | 1.09 | 93 | 1017.6 |
| 20260901161835 | 79 | 109 | 5.0 | 9.0 | 0.72 | 1.28 | 1.09 | 94 | 1017.6 |
| 20260901161334 | 79 | 86 | 4.0 | 9.0 | 0.72 | 1.28 | 1.09 | 94 | 1017.5 |
| 20260901160831 | 79 | 113 | 4.0 | 11.0 | 0.73 | 1.28 | 1.09 | 94 | 1017.6 |
| 20260901160330 | 78 | 126 | 6.0 | 11.0 | 0.73 | 1.28 | 1.09 | 93 | 1017.6 |
| 20260901155830 | 78 | 65 | 6.0 | 10.0 | 0.73 | 1.28 | 1.09 | 93 | 1017.7 |
| 20260901155330 | 79 | 101 | 6.0 | 18.0 | 0.67 | 1.22 | 1.04 | 92 | 1017.9 |
| 20260901154831 | 79 | 118 | 6.0 | 18.0 | 0.49 | 1.04 | 0.88 | 91 | 1017.9 |
| 20260901154332 | 80 | 126 | 3.0 | 8.0 | 0.28 | 0.83 | 0.64 | 91 | 1018.0 |
| 20260901153826 | 80 | 113 | 2.0 | 6.0 | 0.06 | 0.61 | 0.43 | 91 | 1017.8 |
| 20260901153326 | 80 | 91 | 2.0 | 6.0 | 0.04 | 0.59 | 0.40 | 91 | 1017.7 |
| 20260901152827 | 80 | 132 | 3.0 | 6.0 | 0.04 | 0.59 | 0.40 | 91 | 1017.7 |
| 20260901152326 | 80 | 75 | 3.0 | 7.0 | 0.03 | 0.58 | 0.39 | 90 | 1017.7 |
| 20260901151827 | 80 | 80 | 4.0 | 10.0 | 0.01 | 0.56 | 0.38 | 90 | 1017.8 |
| 20260901151328 | 81 | 109 | 5.0 | 10.0 | 0.01 | 0.56 | 0.37 | 89 | 1017.7 |
| 20260901150822 | 81 | 93 | 5.0 | 10.0 | 0.00 | 0.55 | 0.36 | 89 | 1017.6 |
| 20260901150323 | 81 | 84 | 5.0 | 10.0 | 0.00 | 0.55 | 0.36 | 88 | 1017.7 |
| 20260901145823 | 80 | 94 | 5.0 | 9.0 | 0.00 | 0.55 | 0.36 | 89 | 1017.7 |
| 20260901145322 | 80 | 96 | 5.0 | 9.0 | 0.00 | 0.55 | 0.36 | 89 | 1017.7 |
| 20260901144822 | 80 | 102 | 5.0 | 10.0 | 0.00 | 0.55 | 0.36 | 88 | 1017.6 |
| 20260901144324 | 80 | 82 | 5.0 | 10.0 | 0.00 | 0.55 | 0.36 | 88 | 1017.6 |
| 20260901143821 | 81 | 96 | 5.0 | 11.0 | 0.00 | 0.55 | 0.36 | 88 | 1017.7 |
| 20260901143321 | 80 | 82 | 5.0 | 11.0 | 0.00 | 0.55 | 0.36 | 88 | 1017.7 |
| 20260901142821 | 80 | 169 | 5.0 | 10.0 | 0.00 | 0.55 | 0.36 | 89 | 1017.7 |
| 20260901142321 | 80 | 121 | 6.0 | 10.0 | 0.00 | 0.55 | 0.36 | 88 | 1017.5 |
| 20260901141821 | 80 | 73 | 6.0 | 11.0 | 0.00 | 0.55 | 0.36 | 88 | 1017.4 |
| 20260901141321 | 80 | 124 | 5.0 | 11.0 | 0.00 | 0.55 | 0.36 | 88 | 1017.3 |
| 20260901140821 | 80 | 121 | 4.0 | 10.0 | 0.00 | 0.55 | 0.36 | 89 | 1017.3 |
| 20260901140314 | 79 | 119 | 4.0 | 9.0 | 0.00 | 0.55 | 0.36 | 90 | 1017.2 |
| 20260901135815 | 79 | 112 | 4.0 | 9.0 | 0.00 | 0.55 | 0.36 | 90 | 1017.3 |
| 20260901135546 | 78 | 127 | 3.0 | 8.0 | 0.00 | 0.55 | 0.36 | 91 | 1017.1 |
| 20260901134815 | 78 | 107 | 4.0 | 8.0 | 0.00 | 0.55 | 0.36 | 91 | 1017.5 |
| 20260901134315 | 78 | 109 | 5.0 | 9.0 | 0.00 | 0.55 | 0.36 | 92 | 1017.5 |
| 20260901133815 | 78 | 105 | 5.0 | 9.0 | 0.00 | 0.55 | 0.36 | 92 | 1017.3 |
| 20260901133309 | 77 | 79 | 5.0 | 10.0 | 0.00 | 0.55 | 0.36 | 93 | 1017.4 |
| 20260901132808 | 77 | 128 | 5.0 | 10.0 | 0.00 | 0.55 | 0.36 | 93 | 1017.4 |
| 20260901132308 | 77 | 97 | 5.0 | 9.0 | 0.00 | 0.55 | 0.36 | 93 | 1017.3 |
| 20260901131807 | 77 | 84 | 5.0 | 9.0 | 0.00 | 0.55 | 0.36 | 93 | 1017.3 |
| 20260901131309 | 77 | 127 | 5.0 | 9.0 | 0.00 | 0.55 | 0.36 | 93 | 1017.4 |
| 20260901130810 | 77 | 132 | 4.0 | 8.0 | 0.00 | 0.55 | 0.36 | 93 | 1017.5 |
| 20260901130303 | 77 | 70 | 4.0 | 8.0 | 0.00 | 0.55 | 0.36 | 93 | 1017.5 |
| 20260901125805 | 77 | 96 | 3.0 | 8.0 | 0.00 | 0.55 | 0.36 | 93 | 1017.4 |
| 20260901125308 | 77 | 113 | 3.0 | 5.0 | 0.00 | 0.55 | 0.36 | 93 | 1017.4 |
| 20260901124802 | 77 | 74 | 4.0 | 8.0 | 0.00 | 0.55 | 0.36 | 93 | 1017.3 |
| 20260901124303 | 77 | 65 | 4.0 | 9.0 | 0.00 | 0.55 | 0.36 | 93 | 1017.2 |
| 20260901123802 | 77 | 66 | 4.0 | 9.0 | 0.01 | 0.55 | 0.36 | 93 | 1017.0 |
| 20260901123258 | 77 | 113 | 5.0 | 11.0 | 0.03 | 0.55 | 0.36 | 93 | 1016.9 |
| 20260901122757 | 76 | 84 | 5.0 | 11.0 | 0.03 | 0.55 | 0.36 | 94 | 1016.7 |
| 20260901122258 | 76 | 98 | 4.0 | 9.0 | 0.03 | 0.55 | 0.36 | 93 | 1016.7 |
| 20260901122031 | 76 | 110 | 5.0 | 10.0 | 0.07 | 0.55 | 0.36 | 94 | 1016.7 |
| 20260901121257 | 76 | 96 | 5.0 | 10.0 | 0.07 | 0.55 | 0.36 | 93 | 1016.7 |
| 20260901121029 | 76 | 100 | 4.0 | 8.0 | 0.07 | 0.55 | 0.36 | 93 | 1016.5 |
| 20260901120254 | 76 | 90 | 4.0 | 9.0 | 0.07 | 0.55 | 0.36 | 93 | 1016.4 |
| 20260901120022 | 76 | 95 | 4.0 | 9.0 | 0.07 | 0.55 | 0.36 | 93 | 1016.4 |
| 20260901115253 | 76 | 89 | 4.0 | 8.0 | 0.07 | 0.55 | 0.36 | 94 | 1016.4 |
| 20260901114754 | 76 | 53 | 4.0 | 10.0 | 0.08 | 0.55 | 0.36 | 94 | 1016.4 |
| 20260901114251 | 76 | 80 | 4.0 | 10.0 | 0.08 | 0.55 | 0.36 | 94 | 1016.4 |
| 20260901113753 | 76 | 76 | 4.0 | 8.0 | 0.07 | 0.54 | 0.35 | 94 | 1016.3 |
| 20260901113247 | 76 | 126 | 3.0 | 8.0 | 0.06 | 0.52 | 0.33 | 94 | 1016.3 |
| 20260901112749 | 76 | 81 | 3.0 | 8.0 | 0.17 | 0.52 | 0.33 | 94 | 1016.3 |
| 20260901112519 | 76 | 124 | 3.0 | 8.0 | 0.18 | 0.52 | 0.33 | 93 | 1016.4 |
| 20260901111747 | 76 | 66 | 3.0 | 8.0 | 0.14 | 0.48 | 0.29 | 93 | 1016.5 |
| 20260901111245 | 76 | 69 | 2.0 | 5.0 | 0.14 | 0.48 | 0.29 | 93 | 1016.4 |
| 20260901110252 | 76 | 63 | 2.0 | 7.0 | 0.14 | 0.48 | 0.29 | 93 | 1016.2 |
| 20260901105741 | 76 | 107 | 3.0 | 7.0 | 0.26 | 0.48 | 0.29 | 93 | 1016.2 |
| 20260901105239 | 76 | 118 | 3.0 | 7.0 | 0.28 | 0.48 | 0.29 | 93 | 1016.2 |
| 20260901104740 | 76 | 105 | 3.0 | 10.0 | 0.28 | 0.47 | 0.28 | 93 | 1016.1 |
| 20260901104240 | 76 | 86 | 4.0 | 10.0 | 0.28 | 0.47 | 0.28 | 93 | 1016.1 |
| 20260901103738 | 76 | 116 | 6.0 | 13.0 | 0.28 | 0.47 | 0.28 | 92 | 1016.0 |
| 20260901103234 | 76 | 116 | 5.0 | 15.0 | 0.27 | 0.46 | 0.27 | 92 | 1016.1 |
| 20260901102735 | 77 | 133 | 4.0 | 15.0 | 0.16 | 0.35 | 0.16 | 92 | 1016.2 |
| 20260901102234 | 77 | 143 | 4.0 | 11.0 | 0.15 | 0.34 | 0.15 | 92 | 1016.3 |
| 20260901101735 | 77 | 148 | 3.0 | 12.0 | 0.15 | 0.34 | 0.15 | 92 | 1016.3 |
| 20260901101503 | 77 | 104 | 3.0 | 12.0 | 0.15 | 0.34 | 0.15 | 92 | 1016.2 |
| 20260901100734 | 77 | 113 | 6.0 | 15.0 | 0.15 | 0.34 | 0.15 | 92 | 1016.4 |
| 20260901100458 | 78 | 116 | 7.0 | 15.0 | 0.15 | 0.34 | 0.15 | 91 | 1016.5 |
| 20260901095728 | 78 | 111 | 4.0 | 12.0 | 0.03 | 0.22 | 0.03 | 91 | 1016.6 |
| 20260901095228 | 78 | 153 | 2.0 | 11.0 | 0.01 | 0.20 | 0.01 | 91 | 1016.6 |
| 20260901094735 | 78 | 109 | 1.0 | 4.0 | 0.00 | 0.19 | 0.00 | 92 | 1016.2 |
| 20260901094728 | 78 | 127 | 1.0 | 4.0 | 0.00 | 0.19 | 0.00 | 92 | 1016.3 |
| 20260901093726 | 78 | 105 | 2.0 | 4.0 | 0.00 | 0.19 | 0.00 | 91 | 1016.1 |
| 20260901093221 | 78 | 100 | 3.0 | 7.0 | 0.00 | 0.19 | 0.00 | 91 | 1016.0 |
| 20260901092718 | 78 | 74 | 4.0 | 7.0 | 0.00 | 0.19 | 0.00 | 91 | 1015.8 |
| 20260901092447 | 78 | 56 | 3.0 | 7.0 | 0.00 | 0.19 | 0.00 | 91 | 1015.6 |
| 20260901091946 | 78 | 76 | 3.0 | 6.0 | 0.00 | 0.19 | 0.00 | 91 | 1015.7 |
| 20260901091219 | 78 | 73 | 3.0 | 5.0 | 0.00 | 0.19 | 0.00 | 91 | 1015.9 |
| 20260901091214 | 78 | 77 | 3.0 | 6.0 | 0.00 | 0.19 | 0.00 | 91 | 1015.8 |
| 20260901090206 | 78 | 101 | 2.0 | 4.0 | 0.00 | 0.19 | 0.00 | 91 | 1016.1 |
| 20260901085706 | 78 | 112 | 2.0 | 4.0 | 0.00 | 0.19 | 0.00 | 91 | 1016.2 |
| 20260901085435 | 78 | 117 | 2.0 | 4.0 | 0.00 | 0.19 | 0.00 | 91 | 1016.3 |
| 20260901084704 | 78 | 103 | 3.0 | 7.0 | 0.00 | 0.19 | 0.00 | 90 | 1016.2 |
| 20260901084204 | 78 | 65 | 3.0 | 7.0 | 0.00 | 0.19 | 0.00 | 90 | 1016.1 |
| 20260901083700 | 79 | 92 | 3.0 | 9.0 | 0.00 | 0.19 | 0.00 | 90 | 1016.1 |
| 20260901083159 | 79 | 83 | 3.0 | 9.0 | 0.00 | 0.19 | 0.00 | 90 | 1016.1 |
| 20260901082700 | 79 | 77 | 3.0 | 7.0 | 0.00 | 0.19 | 0.00 | 90 | 1016.1 |
| 20260901082152 | 79 | 94 | 4.0 | 9.0 | 0.00 | 0.19 | 0.00 | 90 | 1016.1 |
| 20260901081652 | 79 | 77 | 4.0 | 9.0 | 0.00 | 0.19 | 0.00 | 90 | 1016.2 |
| 20260901081151 | 79 | 94 | 3.0 | 7.0 | 0.00 | 0.19 | 0.00 | 90 | 1016.2 |
| 20260901080650 | 79 | 115 | 2.0 | 6.0 | 0.00 | 0.19 | 0.00 | 90 | 1016.1 |
| 20260901080149 | 79 | 90 | 2.0 | 7.0 | 0.00 | 0.19 | 0.00 | 90 | 1015.9 |
| 20260901075650 | 79 | 97 | 3.0 | 7.0 | 0.00 | 0.19 | 0.00 | 89 | 1015.8 |
| 20260901075150 | 79 | 88 | 3.0 | 5.0 | 0.00 | 0.19 | 0.00 | 89 | 1015.8 |
| 20260901074646 | 79 | 67 | 3.0 | 7.0 | 0.00 | 0.19 | 0.00 | 89 | 1016.0 |
| 20260901074145 | 79 | 58 | 3.0 | 7.0 | 0.00 | 0.19 | 0.00 | 89 | 1016.0 |
| 20260901073646 | 79 | 107 | 3.0 | 7.0 | 0.00 | 0.19 | 0.00 | 88 | 1016.2 |
| 20260901073145 | 79 | 65 | 3.0 | 7.0 | 0.00 | 0.19 | 0.00 | 88 | 1016.2 |
| 20260901072645 | 79 | 116 | 3.0 | 6.0 | 0.00 | 0.19 | 0.00 | 88 | 1016.2 |
| 20260901072147 | 79 | 124 | 2.0 | 6.0 | 0.00 | 0.19 | 0.00 | 88 | 1016.3 |
| 20260901071642 | 79 | 120 | 2.0 | 6.0 | 0.00 | 0.19 | 0.00 | 88 | 1016.4 |
| 20260901071142 | 79 | 125 | 2.0 | 7.0 | 0.00 | 0.19 | 0.00 | 88 | 1016.5 |
| 20260901070642 | 79 | 115 | 3.0 | 7.0 | 0.00 | 0.19 | 0.00 | 87 | 1016.5 |
| 20260901070141 | 79 | 94 | 3.0 | 8.0 | 0.00 | 0.19 | 0.00 | 87 | 1016.6 |
| 20260901065642 | 80 | 94 | 4.0 | 8.0 | 0.00 | 0.19 | 0.00 | 87 | 1016.5 |
| 20260901065142 | 80 | 107 | 4.0 | 8.0 | 0.00 | 0.19 | 0.00 | 87 | 1016.6 |
| 20260901064640 | 80 | 104 | 4.0 | 8.0 | 0.00 | 0.19 | 0.00 | 87 | 1016.7 |
| 20260901064137 | 80 | 74 | 4.0 | 8.0 | 0.00 | 0.19 | 0.00 | 86 | 1016.6 |
| 20260901063636 | 80 | 106 | 3.0 | 8.0 | 0.00 | 0.19 | 0.00 | 86 | 1016.6 |
| 20260901063138 | 80 | 128 | 3.0 | 8.0 | 0.00 | 0.19 | 0.00 | 86 | 1016.6 |
| 20260901062638 | 80 | 98 | 4.0 | 10.0 | 0.00 | 0.19 | 0.00 | 86 | 1016.6 |
| 20260901062138 | 80 | 100 | 5.0 | 10.0 | 0.00 | 0.19 | 0.00 | 86 | 1016.7 |
| 20260901061638 | 80 | 89 | 4.0 | 11.0 | 0.00 | 0.19 | 0.00 | 86 | 1016.7 |
| 20260901061137 | 80 | 114 | 4.0 | 11.0 | 0.00 | 0.19 | 0.00 | 86 | 1016.8 |
| 20260901060907 | 80 | 117 | 5.0 | 11.0 | 0.00 | 0.19 | 0.00 | 86 | 1016.8 |
| 20260901060134 | 80 | 110 | 5.0 | 11.0 | 0.00 | 0.19 | 0.00 | 86 | 1016.7 |
| 20260901055632 | 80 | 104 | 4.0 | 11.0 | 0.00 | 0.19 | 0.00 | 86 | 1016.7 |
| 20260901055134 | 79 | 97 | 4.0 | 9.0 | 0.00 | 0.19 | 0.00 | 86 | 1016.7 |
| 20260901054632 | 79 | 116 | 4.0 | 9.0 | 0.00 | 0.19 | 0.00 | 86 | 1016.7 |
| 20260901054131 | 79 | 103 | 5.0 | 9.0 | 0.00 | 0.19 | 0.00 | 86 | 1016.6 |
| 20260901053858 | 79 | 98 | 4.0 | 9.0 | 0.00 | 0.19 | 0.00 | 87 | 1016.7 |
| 20260901053128 | 79 | 93 | 4.0 | 8.0 | 0.00 | 0.19 | 0.00 | 87 | 1016.8 |
| 20260901052626 | 79 | 111 | 4.0 | 8.0 | 0.00 | 0.19 | 0.00 | 87 | 1016.8 |
| 20260901052128 | 79 | 91 | 3.0 | 8.0 | 0.00 | 0.19 | 0.00 | 88 | 1016.8 |
| 20260901051625 | 78 | 117 | 2.0 | 6.0 | 0.00 | 0.19 | 0.00 | 88 | 1016.8 |
| 20260901051127 | 78 | 92 | 2.0 | 4.0 | 0.00 | 0.19 | 0.00 | 88 | 1016.9 |
| 20260901050620 | 78 | 85 | 2.0 | 6.0 | 0.00 | 0.19 | 0.00 | 88 | 1016.9 |
| 20260901050122 | 78 | 95 | 3.0 | 6.0 | 0.00 | 0.19 | 0.00 | 88 | 1016.9 |
| 20260901045620 | 78 | 76 | 3.0 | 4.0 | 0.00 | 0.19 | 0.19 | 87 | 1017.0 |
| 20260901045121 | 79 | 60 | 2.0 | 4.0 | 0.00 | 0.19 | 0.19 | 87 | 1017.0 |
| 20260901044851 | 79 | 71 | 2.0 | 4.0 | 0.00 | 0.19 | 0.19 | 87 | 1016.9 |
| 20260901044118 | 79 | 77 | 2.0 | 4.0 | 0.00 | 0.19 | 0.19 | 87 | 1016.9 |
| 20260901043614 | 79 | 86 | 2.0 | 4.0 | 0.00 | 0.19 | 0.19 | 87 | 1017.0 |
| 20260901043115 | 79 | 91 | 2.0 | 4.0 | 0.00 | 0.19 | 0.19 | 86 | 1016.9 |
| 20260901042619 | 79 | 119 | 2.0 | 4.0 | 0.00 | 0.19 | 0.19 | 86 | 1016.9 |
| 20260901042613 | 79 | 99 | 2.0 | 4.0 | 0.00 | 0.19 | 0.19 | 86 | 1016.9 |
| 20260901041613 | 79 | 126 | 2.0 | 3.0 | 0.00 | 0.19 | 0.19 | 86 | 1016.9 |
| 20260901041113 | 79 | 94 | 2.0 | 3.0 | 0.00 | 0.19 | 0.19 | 86 | 1016.9 |
| 20260901040610 | 79 | 88 | 2.0 | 3.0 | 0.00 | 0.19 | 0.19 | 86 | 1016.8 |
| 20260901040110 | 79 | 84 | 2.0 | 5.0 | 0.00 | 0.19 | 0.19 | 85 | 1016.8 |
| 20260901035611 | 80 | 92 | 2.0 | 5.0 | 0.00 | 0.19 | 0.19 | 85 | 1016.8 |
| 20260901035109 | 80 | 103 | 2.0 | 4.0 | 0.00 | 0.19 | 0.19 | 85 | 1016.7 |
| 20260901034607 | 80 | 92 | 2.0 | 6.0 | 0.00 | 0.19 | 0.19 | 85 | 1016.8 |
| 20260901034107 | 80 | 121 | 2.0 | 6.0 | 0.00 | 0.19 | 0.19 | 85 | 1016.9 |
| 20260901033603 | 80 | 105 | 2.0 | 6.0 | 0.00 | 0.19 | 0.19 | 85 | 1017.0 |
| 20260901033104 | 80 | 117 | 2.0 | 6.0 | 0.00 | 0.19 | 0.19 | 85 | 1017.0 |
| 20260901032605 | 80 | 84 | 2.0 | 6.0 | 0.00 | 0.19 | 0.19 | 85 | 1017.0 |
| 20260901032105 | 80 | 93 | 2.0 | 6.0 | 0.00 | 0.19 | 0.19 | 85 | 1017.0 |
| 20260901031604 | 80 | 107 | 2.0 | 5.0 | 0.00 | 0.19 | 0.19 | 85 | 1016.8 |
| 20260901031100 | 80 | 112 | 2.0 | 4.0 | 0.00 | 0.19 | 0.19 | 85 | 1016.9 |
| 20260901030827 | 80 | 123 | 2.0 | 4.0 | 0.00 | 0.19 | 0.19 | 85 | 1016.8 |
| 20260901030055 | 80 | 111 | 2.0 | 4.0 | 0.00 | 0.19 | 0.19 | 85 | 1016.8 |
| 20260901025557 | 80 | 129 | 2.0 | 3.0 | 0.00 | 0.19 | 0.19 | 85 | 1016.6 |
| 20260901025057 | 80 | 115 | 2.0 | 3.0 | 0.00 | 0.19 | 0.19 | 84 | 1016.6 |
| 20260901024558 | 80 | 120 | 1.0 | 3.0 | 0.00 | 0.19 | 0.19 | 84 | 1016.6 |
| 20260901024054 | 80 | 79 | 1.0 | 3.0 | 0.00 | 0.19 | 0.19 | 84 | 1016.5 |
| 20260901023551 | 80 | 85 | 2.0 | 4.0 | 0.00 | 0.19 | 0.19 | 84 | 1016.5 |
| 20260901023322 | 81 | 105 | 3.0 | 7.0 | 0.00 | 0.19 | 0.19 | 83 | 1016.5 |
| 20260901022551 | 81 | 106 | 2.0 | 7.0 | 0.00 | 0.19 | 0.19 | 83 | 1016.5 |
| 20260901022051 | 81 | 59 | 2.0 | 5.0 | 0.00 | 0.19 | 0.19 | 83 | 1016.4 |
| 20260901021548 | 81 | 89 | 2.0 | 5.0 | 0.00 | 0.19 | 0.19 | 83 | 1016.4 |
| 20260901021050 | 81 | 72 | 2.0 | 6.0 | 0.00 | 0.19 | 0.19 | 82 | 1016.3 |
| 20260901020544 | 81 | 105 | 2.0 | 6.0 | 0.00 | 0.19 | 0.19 | 82 | 1016.4 |
| 20260901020045 | 81 | 104 | 1.0 | 3.0 | 0.00 | 0.19 | 0.19 | 82 | 1016.3 |